Weather History for KWYS - August, 2013

Change the Weather History Date:

Saturday, August 3, 2013

  Actual Average Record
Temperature  
Mean Temperature 54 °F -  
Max Temperature 77 °F 77 °F 80 °F (2014)
Min Temperature 32 °F 40 °F 32 °F (2013)
Degree Days  
Heating Degree Days 10    
Growing Degree Days 4 (Base 50)    
Moisture  
Dew Point 52 °F    
Average Humidity 88    
Maximum Humidity 100    
Minimum Humidity 81    
Precipitation  
Precipitation 0.00 in - - ()
Sea Level Pressure  
Sea Level Pressure 30.21 in    
Wind  
Wind Speed 4 mph (SW)    
Max Wind Speed 23 mph    
Max Gust Speed 38 mph    
Visibility 10 miles    
Events      
Averages and records for this station are not official NWS values.
T = Trace of Precipitation, MM = Missing Value Source: NWS Daily Summary

Daily Weather History Graph

Daily Weather History Graph

Search for Another Location

Airport or City:

Trip Planner

Search our weather history database for the weather conditions in past years. The results will help you decide how hot, cold, wet, or windy it might be!

Date:

Astronomy

Aug. 03, 2013 Rise Set
Actual Time 6:13 AM MDT 8:47 PM MDT
Civil Twilight 5:40 AM MDT 9:20 PM MDT
Nautical Twilight 4:58 AM MDT 10:01 PM MDT
Astronomical Twilight 4:10 AM MDT 10:48 PM MDT
Moon 3:24 AM MDT (8/3) 6:33 PM MDT (8/3)
Length of Visible Light 15h 40m
Length of Day
14h 33m
Waning Crescent, 9% of the Moon is Illuminated
Aug 3
Waning Crescent
Aug 6
New
Aug 14
First Quarter
Aug 20
Full
Aug 28
Last Quarter

Hourly Weather History & Observations

Time (MDT) Temp. Windchill Dew Point Humidity Pressure Visibility Wind Dir Wind Speed Gust Speed Precip Events Conditions
12:10 AM 42.8 °F 41.1 °F 37.4 °F 81% 30.19 in 10.0 mi SW 3.5 mph - N/A   Clear
12:30 AM 41.0 °F - 37.4 °F 87% 30.20 in 10.0 mi Calm Calm - N/A   Clear
12:50 AM 41.0 °F - 35.6 °F 81% 30.20 in 10.0 mi Calm Calm - N/A   Clear
1:10 AM 39.2 °F - 35.6 °F 87% 30.20 in 10.0 mi Calm Calm - N/A   Clear
1:30 AM 37.4 °F 34.9 °F 32.0 °F 81% 30.20 in 10.0 mi SSW 3.5 mph - N/A   Clear
1:50 AM 37.4 °F 34.9 °F 33.8 °F 87% 30.20 in 10.0 mi SSW 3.5 mph - N/A   Clear
2:10 AM 35.6 °F 32.8 °F 32.0 °F 87% 30.20 in 10.0 mi SSW 3.5 mph - N/A   Clear
2:30 AM 35.6 °F - 32.0 °F 87% 30.19 in 10.0 mi Calm Calm - N/A   Clear
2:50 AM 35.6 °F - 32.0 °F 87% 30.19 in 10.0 mi Calm Calm - N/A   Clear
3:10 AM 35.6 °F 32.8 °F 32.0 °F 87% 30.19 in 10.0 mi SSW 3.5 mph - N/A   Clear
3:30 AM 35.6 °F - 35.6 °F 100% 30.20 in 10.0 mi Calm Calm - N/A   Clear
3:50 AM 33.8 °F - 33.8 °F 100% 30.20 in 10.0 mi Calm Calm - N/A   Clear
4:10 AM 33.8 °F - 33.8 °F 100% 30.20 in 10.0 mi Calm Calm - N/A   Clear
4:30 AM 32.0 °F - 32.0 °F 100% 30.21 in 10.0 mi Calm Calm - N/A   Clear
4:50 AM 32.0 °F - 32.0 °F 100% 30.21 in 10.0 mi Calm Calm - N/A   Clear
5:10 AM 32.0 °F - 32.0 °F 100% 30.22 in 10.0 mi Calm Calm - N/A   Clear
5:30 AM 32.0 °F - 32.0 °F 100% 30.22 in 10.0 mi Calm Calm - N/A   Clear
5:50 AM 32.0 °F - 32.0 °F 100% 30.23 in 10.0 mi Calm Calm - N/A   Clear
6:10 AM 32.0 °F - 32.0 °F 100% 30.24 in 10.0 mi Calm Calm - N/A   Clear
6:30 AM 32.0 °F - 32.0 °F 100% 30.25 in 10.0 mi Calm Calm - N/A   Clear
6:50 AM 32.0 °F - 32.0 °F 100% 30.25 in 10.0 mi Calm Calm - N/A   Clear
7:10 AM 35.6 °F - 35.6 °F 100% 30.25 in 10.0 mi Calm Calm - N/A   Clear
7:30 AM 39.2 °F - 35.6 °F 87% 30.25 in 10.0 mi Calm Calm - N/A   Clear
7:50 AM 41.0 °F - 37.4 °F 87% 30.26 in 10.0 mi Calm Calm - N/A   Clear
8:10 AM 44.6 °F - 41.0 °F 87% 30.26 in 10.0 mi Calm Calm - N/A   Clear
8:30 AM 48.2 °F - 42.8 °F 82% 30.26 in 10.0 mi Calm Calm - N/A   Clear
8:50 AM 50.0 °F - 44.6 °F 82% 30.26 in 10.0 mi Calm Calm - N/A   Clear
9:10 AM 51.8 °F - 46.4 °F 82% 30.26 in 10.0 mi Calm Calm - N/A   Clear
9:30 AM 53.6 °F - 48.2 °F 82% 30.25 in 10.0 mi Calm Calm - N/A   Clear
9:50 AM 55.4 °F - 50.0 °F 82% 30.25 in 10.0 mi SE 3.5 mph - N/A   Clear
10:10 AM 57.2 °F - 53.6 °F 88% 30.25 in 10.0 mi NNE 3.5 mph - N/A   Clear
10:30 AM 59.0 °F - 55.4 °F 88% 30.24 in 10.0 mi NE 4.6 mph - N/A   Clear
10:50 AM 62.6 °F - 57.2 °F 82% 30.24 in 10.0 mi SSE 4.6 mph - N/A   Clear
11:10 AM 64.4 °F - 59.0 °F 83% 30.23 in 10.0 mi Calm Calm - N/A   Clear
11:30 AM 66.2 °F - 62.6 °F 88% 30.23 in 10.0 mi WNW 5.8 mph - N/A   Clear
11:50 AM 68.0 °F - 64.4 °F 88% 30.22 in 10.0 mi West 4.6 mph - N/A   Clear
12:10 PM 71.6 °F - 66.2 °F 83% 30.22 in 10.0 mi WSW 6.9 mph - N/A   Clear
12:30 PM 71.6 °F - 66.2 °F 83% 30.21 in 10.0 mi WSW 10.4 mph 17.3 mph N/A   Clear
12:50 PM 73.4 °F - 68.0 °F 83% 30.21 in 10.0 mi SSW 17.3 mph 25.3 mph N/A   Clear
1:10 PM 73.4 °F - 68.0 °F 83% 30.21 in 10.0 mi SW 12.7 mph 25.3 mph N/A   Clear
1:30 PM 73.4 °F - 68.0 °F 83% 30.20 in 10.0 mi SSW 13.8 mph 23.0 mph N/A   Clear
1:50 PM 75.2 °F - 69.8 °F 83% 30.21 in 10.0 mi WSW 12.7 mph 26.5 mph N/A   Clear
2:10 PM 75.2 °F - 71.6 °F 89% 30.21 in 10.0 mi SSW 17.3 mph 26.5 mph N/A   Clear
2:30 PM 75.2 °F - 71.6 °F 89% 30.20 in 10.0 mi South 17.3 mph 26.5 mph N/A   Clear
2:50 PM 75.2 °F - 71.6 °F 89% 30.20 in 10.0 mi SSW 23.0 mph 33.4 mph N/A   Clear
3:10 PM 75.2 °F - 71.6 °F 89% 30.20 in 10.0 mi SSW 11.5 mph 38.0 mph N/A   Clear
3:30 PM 77.0 °F - 71.6 °F 83% 30.20 in 10.0 mi SSW 18.4 mph 25.3 mph N/A   Clear
3:50 PM 75.2 °F - 71.6 °F 89% 30.20 in 10.0 mi SW 17.3 mph 26.5 mph N/A   Clear
4:10 PM 77.0 °F - 71.6 °F 83% 30.19 in 10.0 mi SSW 19.6 mph 25.3 mph N/A   Clear
4:30 PM 77.0 °F - 71.6 °F 83% 30.19 in 10.0 mi SSW 16.1 mph 26.5 mph N/A   Clear
4:50 PM 77.0 °F - 71.6 °F 83% 30.19 in 10.0 mi WSW 15.0 mph 29.9 mph N/A   Clear
5:10 PM 77.0 °F - 71.6 °F 83% 30.19 in 10.0 mi SSW 18.4 mph 25.3 mph N/A   Clear
5:30 PM 77.0 °F - 71.6 °F 83% 30.19 in 10.0 mi SW 18.4 mph 26.5 mph N/A   Clear
5:50 PM 75.2 °F - 71.6 °F 89% 30.19 in 10.0 mi SW 18.4 mph 25.3 mph N/A   Clear
6:10 PM 75.2 °F - 71.6 °F 89% 30.19 in 10.0 mi WSW 12.7 mph 23.0 mph N/A   Clear
6:30 PM 75.2 °F - 71.6 °F 89% 30.18 in 10.0 mi SSW 12.7 mph 25.3 mph N/A   Clear
6:50 PM 75.2 °F - 71.6 °F 89% 30.18 in 10.0 mi WSW 11.5 mph 20.7 mph N/A   Clear
7:10 PM 75.2 °F - 69.8 °F 83% 30.18 in 10.0 mi WSW 10.4 mph 19.6 mph N/A   Clear
7:30 PM 73.4 °F - 68.0 °F 83% 30.18 in 10.0 mi SSW 13.8 mph - N/A   Clear
7:50 PM 73.4 °F - 68.0 °F 83% 30.19 in 10.0 mi SW 12.7 mph - N/A   Clear
8:10 PM 71.6 °F - 66.2 °F 83% 30.19 in 10.0 mi SSW 9.2 mph - N/A   Clear
8:30 PM 68.0 °F - 64.4 °F 88% 30.19 in 10.0 mi SSW 6.9 mph - N/A   Clear
8:50 PM 66.2 °F - 60.8 °F 83% 30.19 in 10.0 mi SSW 8.1 mph - N/A   Clear
9:10 PM 64.4 °F - 59.0 °F 83% 30.20 in 10.0 mi SSW 5.8 mph - N/A   Clear
9:30 PM 59.0 °F - 55.4 °F 88% 30.20 in 10.0 mi South 4.6 mph - N/A   Clear
9:50 PM 59.0 °F - 53.6 °F 82% 30.21 in 10.0 mi South 5.8 mph - N/A   Clear
10:10 PM 59.0 °F - 53.6 °F 82% 30.21 in 10.0 mi SSW 4.6 mph - N/A   Clear
10:30 PM 57.2 °F - 51.8 °F 82% 30.21 in 10.0 mi West 4.6 mph - N/A   Clear
10:50 PM 53.6 °F - 48.2 °F 82% 30.21 in 10.0 mi Calm Calm - N/A   Clear
11:10 PM 50.0 °F - 46.4 °F 87% 30.21 in 10.0 mi Calm Calm - N/A   Clear
11:30 PM 48.2 °F - 44.6 °F 87% 30.21 in 10.0 mi Calm Calm - N/A   Clear
11:50 PM 46.4 °F - 42.8 °F 87% 30.21 in 10.0 mi Calm Calm - N/A   Clear